Regional Weather Roundup
Issued by NWS

Home | Current Version | Previous Version | Graphics & Text | Print | Product List | Glossary On
Versions: 1 2 3 4 5 6 7 8 9 10 11 12 13 14 15 16 17 18 19 20 21 22 23 24 25 26 27 28 29 30 31 32 33 34 35 36 37 38 39 40 41 42 43 44 45 46 47 48 49 50
000
ASUS45 KCYS 271510
RWRWY

WYOMING REGIONAL WEATHER ROUNDUP
NATIONAL WEATHER SERVICE CHEYENNE WY
900 AM MDT THU AUG 27 2015

NOTE:  "FAIR" INDICATES FEW OR NO CLOUDS BELOW 12,000 FEET
WITH NO SIGNIFICANT WEATHER AND/OR OBSTRUCTIONS TO VISIBILITY.

WYZ001-271600-
YELLOWSTONE NATIONAL PARK

CITY           SKY/WX    TMP DP  RH WIND       PRES   REMARKS
LK YELLOWSTONE   N/A     50  47  89 CALM      30.43R
W YELLOWSTONE  NOT AVBL

$$
WYZ002>013-054>058-071-098>099-271600-
NORTHERN WYOMING

CITY           SKY/WX    TMP DP  RH WIND       PRES   REMARKS
JACKSON        CLOUDY    54  54 100 CALM      30.37R
CODY           FAIR      63  48  59 S12       30.21R
GREYBULL       FAIR      64  59  83 SE6       30.15R
WORLAND        LGT RAIN  64  60  87 SW6       30.16F
SHERIDAN       FAIR      68  55  63 S10       30.09S
BUFFALO        FAIR      66  54  65 SW7       30.18S
GILLETTE       LGT RAIN  61  57  87 W7        30.15R
HULETT         LGT RAIN  64  55  72 S7        30.14R
NEWCASTLE      FAIR      64  55  72 CALM      30.14S

$$
WYZ014>020-022>026-101>103-271600-
CENTRAL WYOMING

CITY           SKY/WX    TMP DP  RH WIND       PRES   REMARKS
BIG PINEY      FAIR      56  51  84 W5        30.36R
PINEDALE       FAIR      55  52  88 NW7       30.35S
DUBOIS         FAIR      59  48  67 N7        30.31F
LANDER         FAIR      66  54  65 CALM      30.22S
RIVERTON       FAIR      63  52  67 S5        30.23S
CASPER         CLOUDY    64  53  67 SW7       30.21S
DOUGLAS        CLOUDY    70  49  47 NW14      30.18R

$$
WYZ021-027>030-104>119-271600-
SOUTHERN WYOMING

CITY           SKY/WX    TMP DP  RH WIND       PRES   REMARKS
EVANSTON       FOG       55  54  96 SW14      30.40R VSB 1/4
KEMMERER       FAIR      59  52  77 SW9       30.40S
FORT BRIDGER   PTSUNNY   61  59  94 W14       30.41S
ROCK SPRINGS   CLOUDY    57  55  93 W15       30.34R
DIXON          CLOUDY    61  57  87 SW6       30.34S
RAWLINS        CLOUDY    57  54  89 CALM      30.31F
SARATOGA       CLOUDY    55  55 100 CALM      30.33S
LARAMIE        LGT RAIN  56  53  90 N8        30.31S
CHEYENNE       FAIR      68  52  56 NW16G24   30.20S
TORRINGTON     FAIR      68  61  78 NW7       30.06S
PINE BLUFFS    FAIR      73  48  40 NW20G26   30.13S

$$


USA.gov is the U.S. government's official web portal to all federal, state and local government web resources and services.